Hourly Data Report for October 03, 2018

VICTORIA UNIVERSITY CS
BRITISH COLUMBIA
Current Station Operator: ECCC - MSC

48°27'25.200" N
123°18'16.600" W
60.10 m
1018598
71783
WYJ

Download Data

Hourly Data (October 2018)
Hourly Data Report for October 3, 2018
TIME
LST
Temp Definition
°C
Dew Point Definition
°C
Rel Hum Definition
%
Precip. Amount Definition
mm

Wind Dir Definition
10's deg

Wind Spd Definition
km/h
Visibility Definition
km
Stn Press Definition
kPa
Hmdx Definition


Wind Chill Definition


Weather Definition


00:00 7.3 4.9 85 0.0 33 4   100.84     LegendNANA
01:00 7.3 2.8 73 0.0 36 8   100.86     LegendNANA
02:00 7.3 1.7 68 0.0 1 6   100.93     LegendNANA
03:00 6.4 0.8 67 0.0 34 6   100.95     LegendNANA
04:00 3.5 1.3 85 0.0 35 3   100.95     LegendNANA
05:00 4.1 2.1 87 0.0 35 5   101.02     LegendNANA
06:00 6.1 2.9 80 0.0 36 3   101.06     LegendNANA
07:00 7.4 2.6 72 0.0 1 8   101.07     LegendNANA
08:00 8.3 4.3 75 0.0 2 4   101.07     LegendNANA
09:00
10:00 9.5 2.0 59 0.0 36 7   101.03     LegendNANA
11:00 9.7 2.3 60 0.0 4 7   101.02     LegendNANA
12:00 10.2 2.4 58 0.0 2 7   100.98     LegendNANA
13:00 10.5 2.5 58 0.0 1 9   100.93     LegendNANA
14:00 10.0 0.7 52 0.0 2 8   100.90     LegendNANA
15:00 9.8 1.2 55 0.0 1 8   100.86     LegendNANA
16:00 9.5 1.7 58 0.0 2 8   100.81     LegendNANA
17:00 9.2 2.2 62 0.0 36 4   100.81     LegendNANA
18:00 9.0 2.4 63 0.0 35 7   100.75     LegendNANA
19:00 8.9 3.0 66 0.0 36 7   100.72     LegendNANA
20:00 8.5 2.5 66 0.0 33 6   100.72     LegendNANA
21:00 7.9 2.9 71 0.0 34 5   100.68     LegendNANA
22:00 7.2 1.8 68 0.0 30 7   100.70     LegendNANA
23:00 7.1 1.5 68 0.0 31 7   100.69     LegendNANA

Notes on Data Quality.

Legend

  • E = Estimated
  • M = Missing
  • NA = Not Available*
  • [empty] = Indicates an unobserved value
Date modified: